Weather History for Princeton, MN

Change the Weather History Date:

Saturday, February 15, 2014

  Actual Average Record
Temperature  
Mean Temperature 7 °F -  
Max Temperature 19 °F 26 °F 42 °F (1998)
Min Temperature -5 °F 9 °F -23 °F (2001)
Degree Days  
Heating Degree Days 58    
Moisture  
Dew Point 4 °F    
Average Humidity 77    
Maximum Humidity 86    
Minimum Humidity 67    
Precipitation  
Precipitation 0.00 in - - ()
Sea Level Pressure  
Sea Level Pressure 29.88 in    
Wind  
Wind Speed 3 mph (ESE)    
Max Wind Speed 12 mph    
Max Gust Speed 16 mph    
Visibility 9 miles    
Events Snow    
Averages and records for this station are not official NWS values.
T = Trace of Precipitation, MM = Missing Value Source: NWS Daily Summary

Daily Weather History Graph

Daily Weather History Graph

Search for Another Location

Airport:

Trip Planner

Search our weather history database for the weather conditions in past years. The results will help you decide how hot, cold, wet, or windy it might be!

Date:

Astronomy

Feb. 15, 2014 Rise Set
Actual Time 7:16 AM CST 5:41 PM CST
Civil Twilight 6:45 AM CST 6:12 PM CST
Nautical Twilight 6:11 AM CST 6:46 PM CST
Astronomical Twilight 5:36 AM CST 7:21 PM CST
Moon 6:47 PM CST (2/15) 7:11 AM CST (2/15)
Length of Visible Light 11h 26m
Length of Day
10h 25m
Waxing Gibbous, 99% of the Moon is Illuminated
Feb 15
Waxing Gibbous
Feb 22
Last Quarter
Mar 1
New
Mar 8
First Quarter
Mar 16
Full

Hourly Weather History & Observations

Time (CST) Temp. Windchill Dew Point Humidity Pressure Visibility Wind Dir Wind Speed Gust Speed Precip Events Conditions
12:13 AM -2.2 °F - -7.6 °F 78% 29.98 in 10.0 mi Calm Calm - N/A   Clear
12:34 AM -5.8 °F - -9.4 °F 84% 29.97 in 10.0 mi Calm Calm - N/A   Clear
12:53 AM -5.8 °F - -9.4 °F 84% 29.97 in 10.0 mi Calm Calm - N/A   Clear
1:13 AM -5.8 °F - -9.4 °F 84% 29.96 in 10.0 mi Calm Calm - N/A   Clear
1:33 AM -5.8 °F - -9.4 °F 84% 29.95 in 10.0 mi Calm Calm - N/A   Clear
1:53 AM -2.2 °F -10.4 °F -5.8 °F 85% 29.93 in 10.0 mi ESE 3.5 mph - N/A   Clear
2:13 AM -2.2 °F - -7.6 °F 78% 29.93 in 10.0 mi Calm Calm - N/A   Clear
2:33 AM -5.8 °F - -9.4 °F 84% 29.93 in 10.0 mi Calm Calm - N/A   Clear
2:53 AM -4.0 °F - -7.6 °F 85% 29.92 in 10.0 mi Calm Calm - N/A   Clear
3:13 AM -4.0 °F - -9.4 °F 78% 29.93 in 10.0 mi Calm Calm - N/A   Clear
3:33 AM -5.8 °F - -9.4 °F 84% 29.92 in 10.0 mi Calm Calm - N/A   Clear
3:53 AM -4.0 °F -12.4 °F -7.6 °F 85% 29.91 in 10.0 mi SSE 3.5 mph - N/A   Clear
4:13 AM -4.0 °F -12.4 °F -9.4 °F 78% 29.90 in 10.0 mi SSE 3.5 mph - N/A   Clear
4:33 AM -4.0 °F -12.4 °F -9.4 °F 78% 29.89 in 10.0 mi SSE 3.5 mph - N/A   Clear
4:53 AM -2.2 °F - -7.6 °F 78% 29.89 in 10.0 mi Calm Calm - N/A   Clear
5:13 AM -5.8 °F - -9.4 °F 84% 29.89 in 10.0 mi Calm Calm - N/A   Clear
5:33 AM -2.2 °F -10.4 °F -7.6 °F 78% 29.88 in 10.0 mi ESE 3.5 mph - N/A   Clear
5:53 AM -2.2 °F -10.4 °F -7.6 °F 78% 29.88 in 10.0 mi ESE 3.5 mph - N/A   Clear
6:13 AM -2.2 °F -12.5 °F -5.8 °F 85% 29.86 in 10.0 mi ESE 4.6 mph - N/A   Clear
6:33 AM -0.4 °F -10.4 °F -5.8 °F 78% 29.85 in 10.0 mi ESE 4.6 mph - N/A   Clear
6:53 AM -0.4 °F - -5.8 °F 78% 29.85 in 10.0 mi Calm Calm - N/A   Mostly Cloudy
7:13 AM -0.4 °F - -5.8 °F 78% 29.85 in 10.0 mi Calm Calm - N/A   Mostly Cloudy
7:33 AM -0.4 °F -8.3 °F -5.8 °F 78% 29.84 in 10.0 mi East 3.5 mph - N/A   Mostly Cloudy
7:53 AM -0.4 °F -10.4 °F -4.0 °F 85% 29.84 in 10.0 mi East 4.6 mph - N/A   Mostly Cloudy
8:13 AM 1.4 °F -8.3 °F -2.2 °F 85% 29.84 in 10.0 mi ESE 4.6 mph - N/A   Mostly Cloudy
8:33 AM 3.2 °F -4.2 °F -2.2 °F 78% 29.84 in 10.0 mi ESE 3.5 mph - N/A   Overcast
8:53 AM 3.2 °F -4.2 °F -0.4 °F 85% 29.84 in 10.0 mi East 3.5 mph - N/A   Mostly Cloudy
9:13 AM 6.8 °F -3.5 °F 1.4 °F 79% 29.83 in 10.0 mi ESE 5.8 mph - N/A   Mostly Cloudy
9:33 AM 8.6 °F -3.7 °F 1.4 °F 73% 29.82 in 10.0 mi ESE 8.1 mph - N/A   Overcast
9:53 AM 10.4 °F -0.4 °F 1.4 °F 67% 29.80 in 10.0 mi ESE 6.9 mph - N/A   Overcast
10:13 AM 10.4 °F -0.4 °F 3.2 °F 73% 29.80 in 10.0 mi SE 6.9 mph - N/A   Overcast
10:33 AM 12.2 °F -0.2 °F 3.2 °F 67% 29.79 in 10.0 mi SE 9.2 mph - N/A   Mostly Cloudy
10:53 AM 14.0 °F 3.9 °F 5.0 °F 67% 29.79 in 4.0 mi SE 6.9 mph - N/A Snow Light Snow
11:13 AM 15.8 °F 5.1 °F 6.8 °F 68% 29.80 in 2.5 mi SSE 8.1 mph - N/A Snow Light Snow
11:33 AM 15.8 °F 2.7 °F 8.6 °F 73% 29.79 in 5.0 mi SE 11.5 mph - N/A Snow Light Snow
11:53 AM 15.8 °F 2.7 °F 8.6 °F 73% 29.78 in 7.0 mi SE 11.5 mph 16.1 mph N/A Snow Light Snow
12:13 PM 17.6 °F 6.4 °F 8.6 °F 68% 29.78 in 10.0 mi SSE 9.2 mph - N/A   Overcast
12:33 PM 17.6 °F 7.3 °F 10.4 °F 73% 29.77 in 10.0 mi SE 8.1 mph - N/A   Mostly Cloudy
12:53 PM 17.6 °F 6.4 °F 10.4 °F 73% 29.77 in 10.0 mi SE 9.2 mph - N/A   Overcast
1:13 PM 17.6 °F 7.3 °F 10.4 °F 73% 29.76 in 10.0 mi SE 8.1 mph - N/A   Overcast
1:33 PM 17.6 °F 7.3 °F 10.4 °F 73% 29.77 in 10.0 mi SSE 8.1 mph - N/A   Overcast
1:53 PM 17.6 °F 9.3 °F 10.4 °F 73% 29.76 in 10.0 mi SE 5.8 mph - N/A   Overcast
2:13 PM 17.6 °F 9.3 °F 12.2 °F 79% 29.77 in 10.0 mi SSE 5.8 mph - N/A   Overcast
2:33 PM 17.6 °F 9.3 °F 12.2 °F 79% 29.78 in 7.0 mi SE 5.8 mph - N/A   Overcast
2:53 PM 17.6 °F 12.3 °F 12.2 °F 79% 29.79 in 1.0 mi East 3.5 mph - N/A Snow Light Snow
3:13 PM 17.6 °F 12.3 °F 12.2 °F 79% 29.80 in 2.5 mi East 3.5 mph - N/A Snow Light Snow
3:33 PM 17.6 °F - 12.2 °F 79% 29.81 in 2.5 mi Calm Calm - N/A Snow Light Snow
3:53 PM 17.6 °F - 12.2 °F 79% 29.82 in 3.0 mi Calm Calm - N/A Snow Light Snow
4:13 PM 17.6 °F - 12.2 °F 79% 29.83 in 2.0 mi Calm Calm - N/A Snow Light Snow
4:33 PM 17.6 °F - 12.2 °F 79% 29.84 in 1.8 mi Calm Calm - N/A Snow Light Snow
4:53 PM 17.6 °F - 12.2 °F 79% 29.85 in 5.0 mi Calm Calm - N/A Snow Light Snow
5:14 PM 17.6 °F 10.7 °F 12.2 °F 79% 29.87 in 7.0 mi NNW 4.6 mph - N/A Snow Light Snow
5:33 PM 17.6 °F 12.3 °F 12.2 °F 79% 29.88 in 7.0 mi NW 3.5 mph - N/A Snow Light Snow
5:53 PM 17.6 °F 12.3 °F 10.4 °F 73% 29.89 in 10.0 mi NNW 3.5 mph - N/A Snow Light Snow
6:13 PM 17.6 °F - 12.2 °F 79% 29.90 in 7.0 mi Calm Calm - N/A Snow Light Snow
6:33 PM 15.8 °F - 10.4 °F 79% 29.91 in 10.0 mi Calm Calm - N/A   Overcast
6:53 PM 15.8 °F - 12.2 °F 86% 29.92 in 10.0 mi Calm Calm - N/A   Overcast
7:13 PM 17.6 °F - 12.2 °F 79% 29.94 in 10.0 mi Calm Calm - N/A   Overcast
7:33 PM 17.6 °F 12.3 °F 12.2 °F 79% 29.95 in 10.0 mi WNW 3.5 mph - N/A   Overcast
7:53 PM 17.6 °F - 12.2 °F 79% 29.95 in 10.0 mi Calm Calm - N/A   Overcast
8:13 PM 17.6 °F - 12.2 °F 79% 29.95 in 10.0 mi Calm Calm - N/A   Overcast
8:33 PM 17.6 °F 9.3 °F 12.2 °F 79% 29.96 in 10.0 mi NNW 5.8 mph - N/A   Overcast
8:53 PM 19.4 °F 11.5 °F 10.4 °F 68% 29.98 in 10.0 mi NW 5.8 mph - N/A   Overcast
9:13 PM 19.4 °F 11.5 °F 12.2 °F 74% 29.99 in 10.0 mi NW 5.8 mph - N/A   Overcast
9:33 PM 19.4 °F 10.4 °F 12.2 °F 74% 29.99 in 10.0 mi NNW 6.9 mph - N/A   Overcast
9:53 PM 19.4 °F 9.5 °F 10.4 °F 68% 29.99 in 10.0 mi NW 8.1 mph - N/A   Overcast
10:13 PM 19.4 °F 10.4 °F 10.4 °F 68% 30.00 in 10.0 mi NNW 6.9 mph - N/A   Overcast
10:33 PM 17.6 °F 7.3 °F 10.4 °F 73% 30.02 in 10.0 mi NW 8.1 mph - N/A   Overcast
10:53 PM 17.6 °F 7.3 °F 10.4 °F 73% 30.03 in 10.0 mi NW 8.1 mph - N/A   Overcast
11:13 PM 17.6 °F 5.7 °F 10.4 °F 73% 30.05 in 7.0 mi NW 10.4 mph - N/A Snow Light Snow
11:33 PM 17.6 °F 7.3 °F 10.4 °F 73% 30.05 in 10.0 mi NW 8.1 mph - N/A Snow Light Snow
11:53 PM 17.6 °F 7.3 °F 10.4 °F 73% 30.06 in 10.0 mi NW 8.1 mph - N/A   Mostly Cloudy